{"data":{"norad_id":56119,"intl_designator":"2023-046AC","name":"STARLINK-6091","alt_names":[],"object_type":"PAYLOAD","status":"ACTIVE","operator":null,"country":"US","launch_date":"2023-03-29","launch_site_code":"AFETR","launch_vehicle":null,"mission":null,"orbit_class":"UNKNOWN","rcs_meters":null,"size_class":null,"mass_kg":null,"dimensions":null,"purposes":["comms"],"wikipedia_slug":null,"has_3d_model":false,"image_url":null,"decayed_at":null,"tle_current":{"epoch":"2026-05-25T04:08:59.305632Z","epoch_age_seconds":56258,"freshness":"FRESH","line1":"1 56119U 23046AC  26145.17290863  .00002455  00000+0  98663-4 0  9992","line2":"2 56119  43.0019  75.3640 0000167 280.9430  79.1402 15.27592499173890","mean_motion":15.27592499,"eccentricity":1.67e-5,"inclination_deg":43.0019,"raan_deg":75.364,"arg_perigee_deg":280.943,"mean_anomaly_deg":79.1402,"bstar":9.8663e-5,"rev_number":17389,"period_min":94.265977408416,"perigee_km":482.89708860957,"apogee_km":483.12625097514,"semimajor_km":6861.1486697924,"source":"CELESTRAK","updated_at":"2026-05-25T13:38:17.957901Z"}}}